EW9994 Weather Reports


time (UTC)temp
C
wind
direction
speed
KPH
gust
KPH
rain 1hr
cm
rain 24hr
cm
rain mn
cm
humidity
%
barometer
mb
20260505050406 12 27 3.2 4.8 0.64 0.91 0.91 78 1014.4
20260505040406 12 27 1.6 1.6 0.03 0.28 0.28 81 1014.4
20260505034906 12 27 0.0 1.6 0.05 0.28 0.28 81 1014.6
20260505033906 12 27 1.6 1.6 0.05 0.28 0.28 82 1014.6
20260505033406 12 27 0.0 1.6 0.05 0.28 0.28 82 1014.7
20260505031906 12 27 0.0 0.0 0.05 0.25 0.25 82 1015.0
20260505030906 13 27 1.6 1.6 0.10 0.25 0.25 83 1015.1
20260505024907 12 27 0.0 1.6 0.15 0.23 0.23 84 1015.3
20260505023406 13 27 1.6 3.2 0.20 0.23 0.23 85 1015.5
20260505021405 13 27 0.0 1.6 0.18 0.18 0.18 86 1015.6
20260505020906 13 27 0.0 1.6 0.15 0.15 0.15 86 1015.7
20260505020406 13 27 1.6 4.8 0.15 0.15 0.15 86 1015.7
20260505014407 13 27 1.6 3.2 0.05 0.05 0.05 85 1016.0
20260505013906 13 27 0.0 1.6 0.05 0.05 0.05 84 1016.0
20260505013406 13 27 0.0 1.6 0.03 0.03 0.03 83 1016.1
20260505011405 14 27 0.0 0.0 0.00 0.00 0.00 81 1016.1
20260505010405 14 27 1.6 3.2 0.00 0.00 0.00 81 1016.2
20260505004406 15 27 3.2 8.0 0.00 0.00 0.00 79 1016.5
20260505003406 15 27 3.2 9.7 0.00 0.00 0.00 79 1016.6
20260504233405 14 25 4.8 12.9 0.00 0.00 0.00 78 1017.2
20260504231906 14 25 6.4 11.3 0.00 0.00 0.00 79 1017.4
20260504231405 14 25 3.2 4.8 0.00 0.00 0.00 79 1017.5
20260504230905 14 25 4.8 9.7 0.00 0.00 0.00 79 1017.6
20260504224906 14 23 3.2 4.8 0.00 0.00 0.00 79 1017.9
20260504224405 14 22 4.8 8.0 0.00 0.00 0.00 79 1018.0
20260504223905 13 22 1.6 4.8 0.00 0.00 0.00 79 1018.0
20260504223406 13 25 4.8 19.3 0.00 0.00 0.00 80 1017.9
20260504221405 13 28 8.0 11.3 0.00 0.00 0.00 80 1018.0
20260504220405 13 24 9.7 16.1 0.00 0.00 0.00 79 1018.1
20260504214907 13 29 8.0 12.9 0.00 0.00 0.00 80 1018.1
20260504214408 13 30 4.8 12.9 0.00 0.00 0.00 80 1018.2
20260504211908 14 33 9.7 11.3 0.00 0.00 0.00 80 1018.2
20260504210905 15 34 8.0 12.9 0.00 0.00 0.00 80 1018.3
20260504210405 15 36 8.0 12.9 0.00 0.00 0.00 80 1018.2
20260504204406 15 40 8.0 12.9 0.00 0.00 0.00 79 1018.2
20260504203905 15 40 8.0 12.9 0.00 0.00 0.00 80 1018.3
20260504203408 15 26 6.4 14.5 0.00 0.00 0.00 80 1018.3
20260504201905 15 23 4.8 8.0 0.00 0.00 0.00 80 1018.5
20260504201405 15 23 8.0 12.9 0.00 0.00 0.00 80 1018.4
20260504200906 15 32 8.0 11.3 0.00 0.00 0.00 80 1018.3
20260504200405 15 33 8.0 11.3 0.00 0.00 0.00 79 1018.3
20260504193407 17 56 1.6 4.8 0.00 0.00 0.00 74 1018.1
20260504184906 17 203 3.2 9.7 0.00 0.00 0.00 71 1017.6
20260504183907 17 185 4.8 9.7 0.00 0.00 0.00 70 1017.5
20260504180906 18 248 3.2 4.8 0.00 0.00 0.00 69 1017.4
20260504173407 19 217 3.2 12.9 0.00 0.00 0.00 67 1017.3
20260504171907 19 194 3.2 12.9 0.00 0.00 0.00 66 1017.2
20260504170906 20 204 8.0 19.3 0.00 0.00 0.00 63 1017.2
20260504160406 21 200 4.8 11.3 0.00 0.00 0.00 50 1017.1
20260504150407 21 254 4.8 19.3 0.00 0.00 0.00 48 1017.3
20260504110406 21 166 9.7 12.9 0.00 0.00 0.00 41 1019.1
20260504081406 16 191 4.8 8.0 0.00 0.00 0.00 67 1020.2
20260504070406 13 261 3.2 9.7 0.00 0.00 0.00 71 1020.2